Location: Crocus Hill
(18.2167°N, 63.0667°W)
Time: 03:27:48
(UTC+00:00)

SJ-12 - Pass Details

Date: 26 January 2020
Orbit: 569 x 585 km, 97.6° (Epoch: 17 February)

Event Time Altitude Azimuth Distance (km) Brightness Sun altitude
Rises 09:19:15 0° 6° (N) 2,771 7.3 -20.7°
Reaches altitude 10° 09:21:24 10° 4° (N) 1,875 6.4 -20.2°
Maximum altitude 09:25:25 65° 283° (WNW) 634 3.8 -19.3°
Drops below altitude 10° 09:29:28 10° 201° (SSW) 1,880 6.5 -18.4°
Sets 09:31:37 0° 198° (SSW) 2,780 7.4 -17.9°
